Nett Lake, MN

7:41 PM CST on February 05, 2016 (GMT -0600)
Orr Regional

Weather History for KORB - December, 2013

Change the Weather History Date:

Monday, December 2, 2013

  Actual Average Record
Temperature  
Mean Temperature 22 °F -  
Max Temperature 26 °F 25 °F 39 °F (1999)
Min Temperature 19 °F 12 °F -11 °F (2003)
Degree Days  
Heating Degree Days 42    
Moisture  
Dew Point 20 °F    
Average Humidity 87    
Maximum Humidity 93    
Minimum Humidity 80    
Precipitation  
Precipitation 0.11 in - - ()
Sea Level Pressure  
Sea Level Pressure 29.76 in    
Wind  
Wind Speed 1 mph (ENE)    
Max Wind Speed 5 mph    
Max Gust Speed -    
Visibility 5 miles    
Events Snow    
Averages and records for this station are not official NWS values.
T = Trace of Precipitation, MM = Missing Value Source: NWS Daily Summary

Daily Weather History Graph

Daily Weather History Graph

Search for Another Location

Airport or City:

Trip Planner

Search our weather history database for the weather conditions in past years. The results will help you decide how hot, cold, wet, or windy it might be!

Date:

Astronomy

Dec. 02, 2013 Rise Set
Actual Time 7:41 AM CST 4:19 PM CST
Civil Twilight 7:06 AM CST 4:55 PM CST
Nautical Twilight 6:27 AM CST 5:34 PM CST
Astronomical Twilight 5:49 AM CST 6:12 PM CST
Moon 7:04 AM CST (12/2) 4:25 PM CST (12/2)
Length of Visible Light 9h 49m
Length of Day
8h 38m
Waning Crescent, 0% of the Moon is Illuminated
Dec 2
Waning Crescent
Dec 2
New
Dec 9
First Quarter
Dec 17
Full
Dec 25
Last Quarter

Hourly Weather History & Observations

Time (CST) Temp. Windchill Dew Point Humidity Pressure Visibility Wind Dir Wind Speed Gust Speed Precip Events Conditions
12:13 AM 19.4 °F - 15.8 °F 86% 29.90 in 10.0 mi Calm Calm - N/A   Overcast
12:33 AM 19.4 °F - 15.8 °F 86% 29.89 in 10.0 mi Calm Calm - N/A   Overcast
12:53 AM 19.4 °F - 15.8 °F 86% 29.89 in 10.0 mi Calm Calm - N/A   Overcast
1:13 AM 19.4 °F - 15.8 °F 86% 29.88 in 10.0 mi Calm Calm - N/A   Overcast
1:33 AM 19.4 °F - 15.8 °F 86% 29.88 in 10.0 mi Calm Calm - N/A   Overcast
1:53 AM 19.4 °F - 15.8 °F 86% 29.88 in 10.0 mi Calm Calm - N/A   Overcast
2:13 AM 19.4 °F - 15.8 °F 86% 29.87 in 10.0 mi Calm Calm - N/A   Overcast
2:33 AM 19.4 °F - 15.8 °F 86% 29.87 in 10.0 mi Calm Calm - N/A   Overcast
2:53 AM 19.4 °F - 15.8 °F 86% 29.86 in 10.0 mi Calm Calm - N/A   Overcast
3:13 AM 19.4 °F - 15.8 °F 86% 29.85 in 10.0 mi Calm Calm - N/A   Overcast
3:33 AM 19.4 °F - 15.8 °F 86% 29.84 in 10.0 mi Calm Calm - N/A   Overcast
3:53 AM 19.4 °F - 17.6 °F 93% 29.84 in 10.0 mi Calm Calm - N/A   Overcast
4:13 AM 19.4 °F - 17.6 °F 93% 29.83 in 10.0 mi Calm Calm - N/A   Overcast
4:33 AM 19.4 °F - 17.6 °F 93% 29.83 in 10.0 mi Calm Calm - N/A   Overcast
4:53 AM 19.4 °F - 17.6 °F 93% 29.82 in 10.0 mi Calm Calm - N/A   Overcast
5:13 AM 19.4 °F - 17.6 °F 93% 29.81 in 10.0 mi Calm Calm - N/A   Overcast
5:33 AM 19.4 °F - 17.6 °F 93% 29.80 in 10.0 mi Calm Calm - N/A   Overcast
5:53 AM 19.4 °F - 17.6 °F 93% 29.80 in 10.0 mi Calm Calm - N/A   Overcast
6:13 AM 19.4 °F - 15.8 °F 86% 29.80 in 10.0 mi Calm Calm - N/A   Overcast
6:33 AM 19.4 °F - 15.8 °F 86% 29.80 in 10.0 mi Calm Calm - N/A   Overcast
6:53 AM 19.4 °F - 15.8 °F 86% 29.79 in 10.0 mi Calm Calm - N/A   Overcast
7:13 AM 19.4 °F - 15.8 °F 86% 29.79 in 10.0 mi Calm Calm - N/A   Overcast
7:33 AM 19.4 °F - 17.6 °F 93% 29.79 in 10.0 mi Calm Calm - N/A   Overcast
7:53 AM 19.4 °F - 17.6 °F 93% 29.78 in 4.0 mi Calm Calm - N/A Snow Light Snow
8:13 AM 19.4 °F - 17.6 °F 93% 29.78 in 7.0 mi Calm Calm - N/A   Overcast
8:33 AM 21.2 °F - 17.6 °F 86% 29.78 in 10.0 mi Calm Calm - N/A   Overcast
8:53 AM 21.2 °F - 17.6 °F 86% 29.78 in 4.0 mi Calm Calm - N/A Snow Light Snow
9:13 AM 21.2 °F - 19.4 °F 93% 29.77 in 3.0 mi Calm Calm - N/A   Overcast
9:33 AM 21.2 °F - 19.4 °F 93% 29.77 in 3.0 mi Calm Calm - N/A   Overcast
9:53 AM 21.2 °F 16.4 °F 19.4 °F 93% 29.76 in 5.0 mi East 3.5 mph - N/A   Overcast
10:13 AM 23.0 °F 17.0 °F 19.4 °F 86% 29.76 in 4.0 mi East 4.6 mph - N/A   Overcast
10:33 AM 23.0 °F 18.4 °F 19.4 °F 86% 29.76 in 3.0 mi East 3.5 mph - N/A   Overcast
10:53 AM 24.8 °F - 19.4 °F 80% 29.76 in 7.0 mi Calm Calm - N/A Snow Light Snow
11:13 AM 24.8 °F 19.1 °F 19.4 °F 80% 29.75 in 3.0 mi East 4.6 mph - N/A Snow Light Snow
11:33 AM 24.8 °F 19.1 °F 19.4 °F 80% 29.74 in 4.0 mi East 4.6 mph - N/A   Overcast
11:53 AM 24.8 °F - 21.2 °F 86% 29.74 in 2.5 mi Calm Calm - 0.01 in Snow Light Snow
12:13 PM 24.8 °F - 21.2 °F 86% 29.74 in 4.0 mi Calm Calm - N/A   Overcast
12:33 PM 26.6 °F - 21.2 °F 80% 29.73 in 2.5 mi Calm Calm - N/A Snow Light Snow
12:53 PM 26.6 °F - 21.2 °F 80% 29.73 in 3.0 mi Calm Calm - 0.01 in Snow Light Snow
1:13 PM 26.6 °F 22.6 °F 21.2 °F 80% 29.72 in 5.0 mi East 3.5 mph - N/A   Overcast
1:33 PM 26.6 °F - 21.2 °F 80% 29.72 in 1.5 mi Calm Calm - N/A   Overcast
1:53 PM 26.6 °F - 21.2 °F 80% 29.72 in 1.2 mi Calm Calm - 0.01 in Snow Light Snow
2:13 PM 26.6 °F - 21.2 °F 80% 29.71 in 1.8 mi Calm Calm - N/A Snow Light Snow
2:33 PM 26.6 °F - 23.0 °F 86% 29.71 in 1.0 mi Calm Calm - 0.01 in Snow Light Snow
2:53 PM 26.6 °F - 23.0 °F 86% 29.71 in 1.2 mi Calm Calm - 0.01 in Snow Light Snow
3:13 PM 26.6 °F - 23.0 °F 86% 29.71 in 1.0 mi Calm Calm - N/A Snow Heavy Snow
3:33 PM 26.6 °F 22.6 °F 23.0 °F 86% 29.70 in 1.0 mi NE 3.5 mph - N/A   Overcast
3:53 PM 26.6 °F - 23.0 °F 86% 29.70 in 1.8 mi Calm Calm - 0.01 in Snow Light Snow
4:13 PM 24.8 °F - 23.0 °F 93% 29.70 in 1.5 mi Calm Calm - N/A   Overcast
4:33 PM 24.8 °F - 21.2 °F 86% 29.70 in 2.5 mi Calm Calm - N/A   Overcast
4:53 PM 24.8 °F - 21.2 °F 86% 29.70 in 4.0 mi Calm Calm - N/A   Overcast
5:13 PM 24.8 °F 20.5 °F 21.2 °F 86% 29.70 in 5.0 mi ENE 3.5 mph - N/A Snow Light Snow
5:33 PM 24.8 °F 20.5 °F 21.2 °F 86% 29.70 in 4.0 mi East 3.5 mph - N/A   Overcast
5:53 PM 24.8 °F - 21.2 °F 86% 29.70 in 2.5 mi Calm Calm - N/A Snow Light Snow
6:13 PM 24.8 °F - 21.2 °F 86% 29.70 in 3.0 mi Calm Calm - N/A Snow Light Snow
6:33 PM 24.8 °F - 21.2 °F 86% 29.70 in 5.0 mi Calm Calm - N/A   Overcast
6:53 PM 24.8 °F - 21.2 °F 86% 29.70 in 7.0 mi Calm Calm - 0.01 in   Overcast
7:13 PM 24.8 °F 20.5 °F 21.2 °F 86% 29.70 in 4.0 mi ENE 3.5 mph - N/A   Overcast
7:33 PM 24.8 °F 20.5 °F 21.2 °F 86% 29.70 in 2.0 mi ENE 3.5 mph - N/A   Overcast
7:53 PM 24.8 °F - 21.2 °F 86% 29.70 in 2.5 mi Calm Calm - N/A   Overcast
8:13 PM 24.8 °F 20.5 °F 21.2 °F 86% 29.70 in 3.0 mi ENE 3.5 mph - N/A   Overcast
8:33 PM 24.8 °F - 21.2 °F 86% 29.70 in 2.5 mi Calm Calm - 0.01 in Snow Snow
8:53 PM 24.8 °F - 21.2 °F 86% 29.71 in 2.0 mi Calm Calm - 0.01 in Snow Light Snow
9:13 PM 24.8 °F 20.5 °F 21.2 °F 86% 29.71 in 2.5 mi East 3.5 mph - 0.01 in Snow Light Snow
9:33 PM 24.8 °F - 23.0 °F 93% 29.71 in 2.5 mi Calm Calm - 0.01 in Snow Light Snow
9:53 PM 26.6 °F - 23.0 °F 86% 29.71 in 2.5 mi Calm Calm - 0.01 in Snow Light Snow
10:13 PM 26.6 °F 22.6 °F 23.0 °F 86% 29.71 in 3.0 mi East 3.5 mph - N/A Snow Light Snow
10:33 PM 26.6 °F 22.6 °F 23.0 °F 86% 29.72 in 2.5 mi ENE 3.5 mph - N/A Snow Light Snow
10:53 PM 26.6 °F - 23.0 °F 86% 29.72 in 2.5 mi Calm Calm - 0.01 in Snow Light Snow
11:13 PM 26.6 °F - 23.0 °F 86% 29.72 in 2.0 mi Calm Calm - N/A Snow Light Snow
11:33 PM 26.6 °F - 23.0 °F 86% 29.72 in 2.5 mi Calm Calm - 0.01 in Snow Light Snow
11:53 PM 26.6 °F 22.6 °F 23.0 °F 86% 29.72 in 2.0 mi ENE 3.5 mph - 0.02 in Snow Light Snow